TimeEST,TemperatureF,Dew PointF,Humidity,Sea Level PressureIn,VisibilityMPH,Wind Direction,Wind SpeedMPH,Gust SpeedMPH,PrecipitationIn,Events,Conditions,WindDirDegrees,DateUTC
12:02 AM,32.0,28.4,87,30.10,4.0,NW,4.6,-,0.00,Snow,Light Snow,310,2013-02-16 05:02:00
12:53 AM,28.9,23.0,78,30.13,8.0,NNW,8.1,-,0.00,,Overcast,340,2013-02-16 05:53:00
1:13 AM,28.4,21.2,74,30.10,7.0,NNW,6.9,-,0.00,,Overcast,330,2013-02-16 06:13:00
1:53 AM,28.0,21.9,78,30.12,10.0,NNW,4.6,-,0.00,,Overcast,330,2013-02-16 06:53:00
2:53 AM,28.0,23.0,81,30.12,9.0,Calm,Calm,-,0.00,,Overcast,0,2013-02-16 07:53:00
3:35 AM,28.4,23.0,80,30.08,10.0,Calm,Calm,-,N/A,,Overcast,0,2013-02-16 08:35:00
3:53 AM,28.0,23.0,81,30.09,10.0,Calm,Calm,-,N/A,,Overcast,0,2013-02-16 08:53:00
4:53 AM,27.0,21.0,78,30.09,10.0,Calm,Calm,-,N/A,,Partly Cloudy,0,2013-02-16 09:53:00
5:53 AM,25.0,21.0,85,30.10,10.0,NW,3.5,-,N/A,,Scattered Clouds,320,2013-02-16 10:53:00
6:53 AM,23.0,19.9,88,30.09,8.0,WNW,3.5,-,N/A,,Mostly Cloudy,290,2013-02-16 11:53:00
7:53 AM,24.1,21.0,88,30.10,7.0,Calm,Calm,-,N/A,,Mostly Cloudy,0,2013-02-16 12:53:00
8:53 AM,26.1,21.9,84,30.11,7.0,Calm,Calm,-,N/A,,Overcast,0,2013-02-16 13:53:00
9:53 AM,28.0,21.0,75,30.09,10.0,NNE,3.5,-,N/A,,Scattered Clouds,20,2013-02-16 14:53:00
10:53 AM,28.0,19.0,69,30.08,10.0,Calm,Calm,-,N/A,,Overcast,0,2013-02-16 15:53:00
11:53 AM,32.0,19.9,61,30.06,10.0,NNW,4.6,-,N/A,,Overcast,340,2013-02-16 16:53:00
12:00 PM,30.2,17.6,60,30.04,10.0,Calm,Calm,-,N/A,,Overcast,0,2013-02-16 17:00:00
12:53 PM,30.9,14.0,50,30.04,10.0,West,10.4,-,N/A,,Overcast,280,2013-02-16 17:53:00
1:00 PM,30.2,14.0,51,30.01,10.0,West,5.8,-,N/A,,Mostly Cloudy,280,2013-02-16 18:00:00
1:53 PM,30.0,12.9,49,30.02,10.0,WNW,5.8,16.1,N/A,,Mostly Cloudy,300,2013-02-16 18:53:00
2:53 PM,30.9,10.9,43,30.02,10.0,NW,8.1,-,N/A,,Overcast,310,2013-02-16 19:53:00
3:53 PM,30.9,10.0,42,30.02,10.0,WNW,4.6,-,N/A,,Mostly Cloudy,290,2013-02-16 20:53:00
4:53 PM,30.9,12.0,46,30.01,10.0,NNW,4.6,-,N/A,,Mostly Cloudy,330,2013-02-16 21:53:00
5:53 PM,30.0,12.9,49,30.02,10.0,West,6.9,-,N/A,,Overcast,260,2013-02-16 22:53:00
6:53 PM,28.0,18.0,66,30.04,10.0,WNW,9.2,-,N/A,,Overcast,300,2013-02-16 23:53:00
7:10 PM,26.6,19.4,74,30.01,1.8,NW,8.1,20.7,0.00,Snow,Light Snow,310,2013-02-17 00:10:00
7:32 PM,26.6,21.2,80,30.01,3.0,WNW,8.1,-,0.00,Snow,Light Snow,300,2013-02-17 00:32:00
7:53 PM,26.1,21.0,81,30.04,9.0,West,6.9,-,0.00,,Overcast,280,2013-02-17 00:53:00
8:19 PM,26.6,17.6,69,30.01,1.8,WNW,17.3,25.3,0.00,Snow,Light Snow,290,2013-02-17 01:19:00
8:30 PM,26.6,15.8,64,30.01,3.0,WNW,16.1,24.2,0.01,Snow,Light Snow,290,2013-02-17 01:30:00
8:45 PM,24.8,15.8,69,30.02,10.0,WNW,18.4,26.5,0.01,,Overcast,290,2013-02-17 01:45:00
8:53 PM,25.0,15.1,66,30.05,10.0,West,18.4,26.5,0.01,,Overcast,280,2013-02-17 01:53:00
9:53 PM,24.1,14.0,65,30.06,10.0,WNW,10.4,19.6,N/A,,Overcast,300,2013-02-17 02:53:00
10:53 PM,23.0,12.0,63,30.06,10.0,WNW,13.8,20.7,N/A,,Overcast,290,2013-02-17 03:53:00
11:53 PM,21.9,12.0,66,30.06,10.0,WNW,9.2,21.9,N/A,,Overcast,290,2013-02-17 04:53:00